STARLINK-4722, 53775

Orbit data source: Space-Track

STARLINK-4722, 53775 is a payload satellite owned by SpaceX/Seattle (US) in LEO that was launched on Sun, 11 Sep 2022 UTC via an FALCON 9 launch vehicle from the Air Force Eastern Test Range (AFETR). Payload-class satellites include a variety of spacecraft equipped with specific instruments for various scientific and technological missions. These include communications satellites like Starlink; space stations such as the ISS; scientific satellites like the Hubble; Earth observation satellites from companies like Planet Labs, Umbra, and HawkEye 360; GPS; miniature CubeSats for education and research; and military/defense satellites.

Loading next visibility...
Identifier
53775, 2022-111C
Orbit
LEO
Country
Flag of USUS
Related business
Manufacturer
SpaceX/Seattle
Mission
Operational Commercial Communications
Bus & Motor
STARLINK, Unknown motor
Mass
305 kg wet, ~290 kg dry
Launch date (UTC)
2022-09-11 (4 years ago)
Launch vehicle
FALCON 9
Launch site
Air Force Eastern Test Range (AFETR)
Object type
Payload
Rocket body
Debris
Shape & HBR
Box + 1 Pan, 10.1 m
Radar Cross Section
13.562 m², Large (>1 m²)

Expand to show TLE details & history
Last TLE update: 2 days ago

TLE from 2 days ago
0 STARLINK-4722
1 53775U 22111C   26171.30080882 -.00000794  00000-0 -31804-4 0  9992
2 53775  53.1589 173.6026 0001142  84.7907 275.3214 15.08829243209184
Epoch: 2026-06-20T07:13Z
TLE epoch observation values (Epoch: 2026-06-20T07:13:09.882Z)
Latitude
-0.00006°
Longitude
156.79398°
Altitude
540.594 km
Speed
7.593 km/s
True Right ascension
11h 34m 24s
True Declination
0° 00' 00"
Sunlit
Object was in daylight at epoch
Visualization orbit readout
Latitude
Unknown
Longitude
Unknown
Altitude
Unknown
Speed
Unknown
Apparent Right ascension
Unknown
Apparent Declination
Unknown
Sunlit
N/A
Visualization observer readout
Local Sidereal Time
21:39:33
Azimuth
Unknown
Elevation
Unknown
Doppler factor
Unknown
Orbital elements
Apogee altitude
540.821 km
Perigee altitude
539.241 km
Semi-major axis
6,918.168 km
Eccentricity
0.00011
Inclination
53.1589°
RAAN
173.6026°
Arg. of periapsis
84.7907°
True anomaly
275.30837°
Mean anomaly
275.3214°
Eccentric anomaly
275.31488°
Mean motion
3.77187 °/min
Orbital period
95.44 mins
BSTAR
-0.000031804
Loading maneuver chart data...
Computing Atmospheric mass density...
Loading historical data...
Loading historical data...
Loading historical data...
Loading historical data...
Loading historical data...
Loading historical data...
Loading historical data...

Documentation

Showing up to 5 results
|